Location: Bosdarros
(43.2167°N, 0.3667°W)
Time: 07:20:56
(UTC+00:00)

Timation 2 Rocket - Pass Details

Date: 22 April 2021
Orbit: 907 x 1074 km, 70.0° (Epoch: 07 May)

Event Time Altitude Azimuth Distance (km) Brightness Sun altitude
Rises 20:16:19 0° 194° (SSW) 3,787 6.9 -14.5°
Reaches altitude 10° 20:18:58 10° 192° (SSW) 2,817 6.2 -14.9°
Maximum altitude 20:25:29 65° 112° (ESE) 1,090 4.0 -15.9°
Drops below altitude 10° 20:31:44 10° 32° (NNE) 2,717 6.4 -16.8°
Sets 20:34:15 0° 29° (NNE) 3,644 7.1 -17.2°
